GFSFLT2_500_spd_114.txt.gz
Wind_Speed
31 31 32 33 33 33 31 31 29 28 28 28 27 25 24 22 22 23 23 23 23 23 23 22 21 19 19 19 20 20 20 22
34 34 33 33 35 34 35 33 33 30 29 30 32 30 27 26 26 26 27 27 26 24 24 22 21 19 20 20 20 21 22 22
34 35 35 35 35 36 36 36 34 32 30 30 32 31 29 28 28 29 28 28 27 25 23 21 20 20 20 21 21 22 22 23
36 36 37 38 37 37 38 37 35 33 30 29 32 34 33 31 31 30 29 28 27 25 23 21 22 22 22 23 23 22 22 25
38 39 40 39 39 39 40 40 36 34 32 32 33 35 35 37 34 32 30 30 28 27 24 23 23 23 21 22 23 23 21 25
39 43 41 41 41 40 42 43 41 36 34 35 35 35 35 36 38 35 33 31 30 29 28 26 24 24 24 23 23 23 22 25
43 40 41 43 43 43 42 43 43 40 37 37 37 36 37 38 40 39 37 34 31 32 29 29 26 24 25 23 25 23 22 23
45 42 42 40 42 42 42 43 44 42 39 38 39 37 38 40 42 43 40 35 36 33 32 29 29 27 26 27 25 23 23 23
46 47 45 42 42 43 43 46 46 45 41 40 40 37 40 38 40 37 40 41 36 36 35 33 30 30 29 28 28 27 26 24
48 46 52 52 50 48 47 48 49 48 46 44 41 40 38 38 39 37 39 43 40 38 39 37 33 33 32 31 27 27 27 26
50 49 52 53 51 50 49 49 50 49 48 47 45 44 40 42 43 41 43 42 45 42 42 41 37 36 34 33 30 27 28 27
48 48 48 51 51 51 52 51 51 51 51 51 52 48 46 44 44 42 41 44 43 45 44 43 37 38 36 36 31 29 29 27
47 47 48 48 50 51 52 53 53 53 54 54 53 55 49 48 47 45 40 43 43 48 48 46 40 39 39 36 36 31 30 30
43 45 47 48 49 49 51 52 53 53 53 53 53 53 53 50 48 45 43 42 45 45 50 47 44 41 41 37 35 33 30 32
41 42 44 46 47 48 49 49 51 53 53 54 55 53 55 55 51 48 48 43 45 46 49 50 45 44 44 40 37 33 32 33
43 43 44 45 46 47 49 49 50 51 51 51 51 50 51 51 48 46 49 46 47 47 48 49 48 49 44 40 38 38 34 33
45 45 45 46 47 47 48 48 50 51 51 52 50 50 49 50 48 48 47 48 47 50 49 50 51 51 44 41 41 40 38 35
46 45 45 45 46 47 47 48 49 51 52 54 54 55 54 53 53 53 49 46 47 48 51 51 53 53 49 45 42 41 40 37
46 45 44 45 45 46 48 50 51 52 55 56 57 59 60 58 58 56 54 49 47 50 52 51 52 54 51 46 45 45 40 39
43 43 43 43 43 44 46 49 51 53 56 58 60 62 62 62 61 60 57 52 52 51 52 51 52 53 54 51 44 50 42 42

GFSFLT2_500_spd_117.txt.gz
Wind_Speed
29 30 30 30 31 33 33 32 32 31 30 30 28 28 27 24 23 21 19 20 20 20 21 22 21 21 18 18 20 22 25 25
31 32 31 32 32 34 34 34 33 32 32 31 29 29 27 25 23 23 22 21 20 21 22 22 22 21 18 18 20 23 26 26
31 34 32 33 35 34 35 36 35 34 32 31 29 30 30 27 25 25 24 23 23 21 22 22 22 21 19 20 22 24 27 28
36 37 38 37 38 37 37 38 38 37 34 32 31 30 30 29 28 27 26 24 23 24 22 21 23 20 22 21 24 26 29 26
40 40 40 42 41 41 39 39 40 39 37 34 32 31 30 30 31 32 30 27 24 24 22 22 21 23 23 22 24 27 29 29
42 42 41 42 42 42 43 43 42 42 40 36 33 32 30 31 33 34 34 32 29 25 24 24 23 23 24 26 26 27 27 28
49 42 43 42 43 47 47 47 45 43 42 39 35 33 32 32 32 34 36 34 34 32 28 25 24 25 27 25 27 28 29 28
47 51 45 46 43 47 49 54 45 44 46 43 35 35 34 33 33 35 36 36 35 38 36 31 27 27 26 28 27 27 28 30
44 38 38 43 49 55 50 61 50 43 51 41 35 35 36 35 35 36 37 38 34 35 35 30 29 29 27 29 29 28 27 32
40 40 38 40 47 54 54 57 46 38 43 41 39 38 38 38 38 36 39 39 37 32 34 35 34 31 29 29 29 29 28 29
36 42 42 43 47 50 54 53 56 48 44 45 46 45 44 40 38 37 40 43 43 41 40 39 38 36 35 31 29 30 29 29
42 46 46 44 45 48 51 53 52 51 50 49 47 50 45 44 40 39 42 45 46 46 42 41 42 39 37 34 31 30 31 29
47 47 46 45 44 46 49 51 52 53 53 52 49 46 50 46 48 44 43 47 48 48 48 45 42 41 40 35 32 30 31 29
48 47 45 46 45 46 48 50 50 51 52 52 52 51 50 50 53 55 47 54 54 50 51 48 45 43 42 40 37 31 29 30
50 47 46 45 46 46 46 48 49 50 51 52 52 52 51 52 51 51 51 52 59 54 50 52 51 47 44 42 39 35 32 32
50 50 47 46 46 47 47 47 48 48 48 49 50 52 51 52 53 51 50 51 52 54 58 50 49 52 49 44 43 40 35 34
44 45 45 45 46 46 47 48 48 48 48 49 50 52 52 52 53 53 52 52 52 54 49 54 56 56 52 47 47 44 41 34
42 43 45 46 47 46 46 47 47 48 49 50 51 52 52 52 53 54 54 54 53 52 53 56 57 57 53 52 49 47 42 38
43 45 45 46 46 46 46 47 48 48 50 51 51 51 53 53 55 56 56 57 54 53 55 56 57 57 55 54 51 49 45 45
44 45 45 46 46 46 46 47 47 48 49 50 51 52 53 56 57 59 60 60 59 58 59 58 57 56 54 53 51 50 49 47

GFSFLT2_500_spd_120.txt.gz
Wind_Speed
31 32 29 29 30 31 33 34 32 30 30 30 30 27 26 25 24 22 22 21 20 18 18 18 19 20 21 21 22 24 26 25
26 31 31 30 32 33 34 35 34 32 31 32 32 29 27 26 25 24 22 21 21 20 19 18 19 21 21 20 20 21 24 25
31 29 33 32 33 35 36 38 37 35 33 34 33 32 29 29 26 25 24 23 23 22 20 20 20 20 20 20 21 23 23 25
36 37 38 36 35 38 39 40 40 38 37 37 36 34 31 31 29 27 26 25 24 23 21 21 21 20 21 21 22 22 23 26
38 39 39 40 40 38 39 41 42 42 41 40 40 38 34 31 31 31 30 28 25 23 22 21 21 21 22 23 23 22 23 25
42 41 42 44 45 44 41 38 42 45 44 45 45 43 37 34 33 33 32 31 30 26 26 24 22 23 24 25 26 23 24 25
46 45 45 51 51 47 42 43 44 45 48 50 49 46 41 36 34 35 34 33 32 31 30 31 27 24 24 27 28 25 24 25
44 42 43 44 45 50 44 47 51 50 53 57 59 52 44 39 37 37 36 36 35 35 33 33 33 30 30 28 29 28 26 25
42 40 38 41 43 44 46 46 51 52 49 50 51 61 49 43 40 39 37 37 38 38 37 34 34 29 30 31 30 29 29 27
47 43 41 39 41 45 47 48 45 45 49 58 53 59 53 46 45 39 38 39 40 40 39 37 33 30 32 33 33 31 30 28
53 51 48 45 44 46 48 48 52 48 49 55 50 44 45 52 49 42 39 42 42 41 40 40 40 36 37 38 35 35 33 29
53 55 51 52 50 46 48 48 50 51 51 51 48 41 45 34 37 47 43 42 41 40 39 42 45 43 42 41 42 40 35 30
48 47 47 51 53 52 50 50 50 51 52 51 50 48 45 48 49 47 46 48 43 41 43 48 48 47 48 46 45 41 36 34
59 48 48 47 53 53 51 50 49 49 51 50 49 49 49 51 52 51 50 44 48 43 42 45 50 51 50 45 45 44 36 33
50 46 45 45 51 49 50 50 51 51 50 51 51 51 51 51 52 52 52 48 48 44 47 48 47 49 50 44 47 44 40 40
45 43 40 44 50 50 49 49 49 50 50 50 52 53 52 53 53 53 53 53 51 48 49 47 44 57 47 47 45 47 41 41
45 46 46 43 51 50 50 50 50 50 51 51 51 53 54 53 53 53 52 53 54 54 53 52 51 53 52 47 51 41 42 44
48 43 41 43 47 48 49 50 50 50 51 51 52 54 55 57 57 57 57 56 57 56 55 55 55 53 57 54 56 49 46 46
45 43 41 46 46 45 48 50 51 52 52 52 52 53 55 56 57 57 57 58 58 57 57 57 56 57 59 60 59 60 59 52
53 46 46 44 45 46 49 51 52 52 52 52 52 53 54 56 57 58 57 57 58 60 60 60 60 58 61 60 62 62 58 56

GFSFLT2_500_spd_123.txt.gz
Wind_Speed
26 25 28 31 31 31 31 32 32 31 28 29 29 30 28 26 25 24 24 23 23 22 21 21 21 20 21 21 20 19 18 19
27 28 29 28 30 32 33 34 34 33 31 30 30 32 32 29 28 27 27 25 25 25 23 22 22 23 22 21 19 17 17 20
33 31 31 33 32 32 34 35 36 36 35 33 33 33 35 33 31 29 28 28 26 25 25 24 23 22 23 23 20 18 18 19
36 36 35 34 36 38 37 36 36 38 39 37 35 36 37 35 32 32 31 30 29 28 25 25 24 23 23 25 22 20 20 19
37 38 37 38 37 41 40 40 40 39 40 40 39 39 40 37 35 34 33 34 32 31 29 26 25 24 24 25 24 23 22 21
39 39 36 40 40 42 43 44 45 43 41 41 41 42 43 43 40 37 35 34 33 33 32 30 27 27 26 25 26 24 26 24
42 39 36 39 43 45 48 48 54 49 46 45 45 46 47 48 45 42 39 38 37 37 36 33 31 30 30 28 29 27 26 27
42 45 37 37 41 44 47 46 56 45 52 57 52 53 54 53 53 50 44 43 42 39 39 37 35 32 32 31 31 30 28 28
48 49 48 42 41 43 47 45 47 46 42 38 51 53 56 59 50 54 53 50 47 42 43 41 36 33 32 32 32 33 31 29
50 50 53 54 48 47 45 49 50 49 44 42 50 48 50 57 48 49 51 60 52 47 44 44 39 34 32 34 34 31 31 32
59 59 58 59 56 51 51 50 53 52 51 53 52 48 48 51 51 53 68 65 59 51 47 47 43 40 36 39 38 35 32 31
62 59 59 59 60 57 54 54 55 56 52 54 55 54 52 50 49 54 49 60 66 53 50 51 45 44 41 42 44 40 37 36
68 61 57 56 56 59 59 54 54 55 56 55 56 58 51 49 50 50 48 31 64 53 54 52 51 50 46 46 49 48 42 38
61 52 52 52 53 53 56 55 54 56 57 56 56 59 55 51 48 50 49 43 47 41 37 44 44 48 47 54 52 51 48 42
60 57 51 44 47 52 58 54 57 58 56 56 58 58 55 50 49 51 48 44 46 46 44 43 48 46 50 50 63 50 50 49
60 56 49 47 45 54 51 50 56 59 56 55 57 59 58 51 50 50 51 50 49 51 50 51 47 51 40 57 43 43 42 41
53 53 47 45 46 43 40 45 54 59 57 56 56 57 60 57 49 51 51 52 51 52 53 53 50 50 51 42 45 49 47 45
50 50 47 43 37 38 41 46 54 59 55 56 56 56 56 60 56 53 52 52 52 52 53 54 54 53 50 48 49 50 46 46
46 51 53 47 46 41 44 47 48 51 54 56 55 55 57 59 62 60 57 57 56 56 57 58 55 55 55 53 52 54 54 47
36 45 45 50 47 44 42 39 37 38 41 50 55 56 57 58 60 61 60 58 57 56 57 58 60 60 58 57 58 61 59 52

GFSFLT2_500_spd_126.txt.gz
Wind_Speed
30 29 29 29 26 26 27 28 29 29 30 30 28 26 25 24 24 24 25 25 26 25 24 24 24 23 21 21 19 17 18 17
32 31 28 28 29 28 27 28 30 31 32 33 31 29 28 29 28 26 25 25 27 28 27 25 25 24 23 21 20 19 18 18
32 33 33 31 31 29 30 31 31 33 32 33 35 32 31 32 33 31 28 27 28 29 29 28 28 26 25 23 22 20 20 19
30 32 35 34 34 35 34 34 34 36 35 36 36 36 35 34 35 35 32 30 29 30 32 31 31 30 26 26 24 22 21 22
32 33 33 33 34 35 37 38 37 38 40 39 39 39 40 38 38 37 35 35 34 32 32 35 35 33 29 28 27 23 22 25
29 32 33 33 35 36 38 40 41 42 43 43 45 45 44 43 43 41 40 39 36 36 36 37 39 37 35 30 29 26 24 25
37 37 35 33 36 38 40 41 43 44 48 49 50 51 51 47 49 46 45 43 41 41 41 41 40 40 40 36 31 30 28 26
42 43 43 39 38 38 41 44 46 45 47 47 48 51 56 57 51 50 51 51 49 47 45 46 44 45 42 39 37 33 32 30
47 45 44 43 43 44 44 45 47 49 49 51 48 50 47 47 57 55 56 58 55 55 51 47 48 48 47 43 42 36 34 34
54 54 52 53 52 50 49 49 51 52 54 52 52 52 53 37 55 60 56 63 53 56 54 57 55 55 53 49 44 40 37 36
61 60 59 59 60 60 58 55 54 56 58 57 56 54 54 50 48 49 50 41 46 47 47 51 61 59 54 54 50 43 41 40
67 67 66 65 64 65 63 62 59 57 59 63 61 58 58 56 55 53 49 54 51 53 49 55 60 64 59 57 55 45 45 47
74 74 75 73 67 67 64 61 61 60 60 64 66 61 57 59 60 57 54 54 50 51 50 50 52 55 66 61 51 47 51 50
70 68 68 59 56 55 52 58 60 63 62 62 66 67 63 59 61 59 57 57 53 55 51 53 40 48 58 59 51 42 46 49
52 54 55 56 54 51 52 53 59 61 62 63 63 66 67 63 60 63 60 57 54 54 53 46 45 45 40 39 49 38 37 49
58 62 63 57 56 56 54 54 54 53 56 53 60 64 68 66 62 61 60 57 54 53 54 48 44 37 56 49 52 46 51 45
46 49 56 62 61 59 46 47 47 50 51 45 48 56 64 67 66 64 60 56 54 53 55 52 48 48 51 49 47 52 51 49
40 40 41 42 43 40 46 41 44 40 36 40 39 45 49 56 59 58 59 57 53 54 54 52 52 51 52 50 50 49 48 45
38 35 37 41 41 37 43 44 42 38 39 35 37 44 47 45 52 57 57 56 53 51 53 52 51 51 52 51 49 47 46 45
42 41 35 36 41 36 41 46 42 41 41 35 33 35 39 45 45 45 54 57 58 55 55 56 56 55 54 53 52 50 48 48

GFSFLT2_500_spd_129.txt.gz
Wind_Speed
30 29 28 26 26 26 28 29 26 26 27 26 26 24 23 23 24 26 25 23 23 23 24 22 21 22 22 22 21 20 21 20
29 31 32 30 28 27 28 27 27 27 27 27 26 27 25 25 26 28 29 27 27 26 25 25 23 24 23 23 23 23 23 22
27 29 31 31 32 30 31 31 31 30 29 30 30 30 29 29 29 30 31 30 28 30 30 27 27 27 26 25 24 24 25 23
27 28 29 31 31 30 32 34 34 34 33 33 33 33 34 34 34 34 34 34 33 32 34 32 30 30 29 28 27 25 25 26
27 28 30 31 32 31 32 33 34 34 36 37 36 37 37 37 38 39 38 39 39 38 37 35 33 33 31 30 30 28 27 27
33 31 32 33 33 34 36 34 35 37 38 40 40 39 40 40 43 44 45 44 48 45 41 39 38 36 35 33 33 30 30 30
37 38 38 38 37 37 36 40 40 40 40 41 42 42 42 43 44 46 50 49 53 52 48 44 43 38 40 38 37 34 34 33
43 41 40 42 43 43 43 42 44 44 44 43 43 45 45 46 47 46 43 48 54 55 51 50 46 43 43 40 39 38 37 37
48 47 46 44 43 43 44 44 44 47 48 48 48 49 50 49 48 50 43 47 51 58 59 52 49 48 45 44 43 42 44 42
53 53 52 53 51 49 48 50 51 50 52 53 53 52 53 56 53 51 52 49 47 62 62 60 56 36 54 51 51 51 49 51
56 57 58 59 60 60 60 58 58 55 57 59 59 60 60 60 60 56 55 48 50 47 44 49 41 36 40 45 45 52 55 57
59 61 64 66 69 68 68 66 66 65 61 61 62 64 65 66 65 62 59 54 52 49 51 46 41 40 47 45 45 46 51 57
63 66 69 71 73 74 75 72 66 65 65 62 63 66 68 70 72 68 65 61 59 57 51 50 49 53 50 49 42 47 44 65
64 67 68 69 70 70 72 70 66 59 58 59 60 63 66 68 70 72 69 65 64 65 58 54 54 50 55 53 49 47 45 51
61 59 58 58 58 59 58 57 55 53 52 59 64 64 63 64 69 70 67 66 63 65 64 60 56 54 54 53 50 46 41 40
49 48 49 50 53 54 55 54 54 56 57 53 60 62 61 63 65 67 67 65 60 61 64 62 61 59 55 52 47 46 41 31
47 48 46 45 45 48 51 54 53 54 56 49 58 60 58 61 61 66 66 66 66 59 60 62 59 58 56 55 52 46 48 46
43 44 42 41 39 38 39 39 40 43 43 45 46 45 48 50 49 45 51 54 55 59 61 59 59 58 56 58 54 49 51 55
41 41 38 39 43 40 38 38 42 39 41 37 45 41 45 42 39 34 36 41 45 45 49 55 56 57 57 58 58 54 55 53
35 36 41 39 35 37 40 37 33 40 35 30 38 39 43 35 38 39 38 39 42 45 44 47 56 56 56 59 60 58 55 52

GFSFLT2_500_spd_132.txt.gz
Wind_Speed
28 28 28 29 28 27 27 27 26 25 24 22 22 22 23 21 21 22 25 25 24 24 24 24 24 21 21 21 22 22 21 19
27 30 29 29 29 30 29 29 29 29 28 27 25 25 25 26 23 24 26 28 29 27 27 27 26 24 23 22 22 23 23 22
27 29 30 30 30 30 30 30 31 32 30 30 30 29 29 31 30 27 28 30 33 32 31 30 28 27 29 25 24 25 26 25
26 27 29 31 33 33 31 31 30 31 32 32 32 32 32 33 34 32 31 33 36 35 34 35 34 33 30 30 28 26 27 27
29 29 31 33 33 35 34 33 31 32 35 35 35 34 34 36 37 36 35 37 39 39 43 42 37 38 38 33 31 30 29 28
34 34 35 36 37 38 38 37 35 35 37 37 37 37 38 38 38 39 37 39 40 43 43 46 46 44 42 41 35 34 31 30
35 37 37 40 41 41 41 42 41 40 40 41 40 40 41 41 42 41 40 41 41 43 45 44 42 50 46 43 41 37 35 34
47 46 43 43 44 45 46 48 47 46 47 47 48 45 45 44 45 45 44 42 44 47 47 45 45 43 47 50 44 44 39 38
51 52 52 48 46 45 46 48 48 47 47 48 50 49 47 49 47 47 48 47 47 49 51 41 46 46 49 53 53 48 43 39
54 51 49 48 49 49 49 49 50 50 49 50 52 54 56 52 53 54 55 54 49 52 45 52 52 49 46 45 50 42 48 47
48 50 51 52 53 52 54 54 55 55 56 56 56 57 59 60 59 60 62 61 59 56 55 56 53 48 45 36 41 46 32 37
48 50 52 54 56 58 60 62 63 63 62 64 64 64 64 65 66 65 66 67 66 65 61 59 54 54 52 44 43 38 28 37
54 55 57 59 61 62 64 66 68 69 67 67 67 68 69 71 71 71 71 73 71 70 65 64 59 54 57 51 44 48 46 40
57 59 60 61 63 66 67 68 69 69 70 68 63 60 63 67 70 73 74 73 75 73 71 66 65 58 58 55 52 48 51 47
57 58 60 61 62 60 58 58 58 59 63 64 60 58 57 64 66 68 70 71 71 71 70 67 64 60 59 58 53 54 51 49
54 56 55 56 55 53 53 54 53 53 53 55 58 60 59 57 64 69 67 66 67 67 67 67 63 59 60 63 58 55 54 53
53 53 53 52 51 48 46 48 49 49 49 51 53 55 55 61 60 65 67 67 67 64 64 65 68 63 59 63 64 58 57 57
47 47 49 48 47 46 47 47 46 48 47 48 49 50 53 56 55 54 58 63 64 61 64 57 61 64 62 61 62 64 62 59
46 49 48 45 43 44 46 44 44 49 49 44 41 44 45 48 50 49 50 53 51 50 49 49 50 47 45 52 63 60 60 61
50 49 49 44 40 41 42 40 42 40 41 43 39 40 41 38 40 47 49 45 50 47 41 47 51 50 50 49 50 59 61 61

GFSFLT2_500_spd_135.txt.gz
Wind_Speed
31 30 31 30 28 28 26 26 26 26 25 24 23 24 23 23 23 23 26 26 27 26 25 24 23 24 24 22 24 23 23 22
31 31 30 30 30 29 28 28 29 27 27 28 27 27 26 26 25 25 28 29 28 28 28 26 25 26 26 25 25 25 25 23
31 31 31 30 31 30 29 29 30 30 30 30 32 30 30 29 29 28 31 31 33 31 30 30 30 30 29 28 29 27 27 25
26 26 27 28 31 32 32 32 31 31 31 32 33 32 31 32 33 33 34 35 36 35 35 34 33 34 33 32 33 31 32 27
28 30 32 33 35 34 36 35 35 33 33 33 34 34 33 33 34 34 35 37 38 38 38 36 37 39 40 41 38 36 35 34
32 33 34 34 36 38 39 38 39 39 39 39 37 37 35 36 36 36 36 37 39 39 39 38 38 38 41 37 40 42 38 37
40 39 40 40 40 40 41 43 44 44 45 45 44 43 41 40 38 40 39 40 42 43 42 41 40 38 38 38 32 30 40 42
50 51 52 50 48 49 48 50 49 48 49 49 51 51 49 49 47 45 45 44 44 47 48 50 45 41 40 40 33 34 34 42
59 56 55 57 55 55 55 53 53 51 50 51 52 52 51 49 49 50 48 46 46 49 49 54 46 41 40 45 35 35 41 32
47 50 47 46 48 50 53 52 49 50 51 52 53 54 55 54 53 53 53 52 52 55 47 46 29 51 39 37 42 38 38 31
45 45 44 45 45 46 46 48 51 50 51 52 55 55 56 57 58 59 59 58 59 63 61 63 59 56 57 51 47 41 40 42
46 47 48 49 50 51 51 51 52 53 54 56 57 57 58 58 60 63 65 67 67 67 68 65 66 63 59 58 55 48 45 43
48 49 50 51 53 54 55 56 56 57 57 58 59 61 62 64 66 67 68 71 72 73 72 72 71 68 65 63 59 53 51 49
51 52 53 53 53 53 54 56 58 58 59 60 60 61 61 62 65 68 71 74 76 78 79 77 77 74 74 69 66 58 54 53
52 51 51 51 51 51 52 54 54 54 53 54 55 57 59 61 60 62 67 69 73 75 78 78 76 72 73 75 71 62 57 56
51 50 51 50 50 51 50 51 50 50 50 50 52 55 58 59 60 60 62 66 72 75 76 75 77 71 63 67 68 66 58 58
48 46 46 47 48 49 50 50 48 48 47 48 49 50 52 53 55 57 58 60 62 71 71 74 72 69 58 62 61 58 53 53
44 44 45 46 47 48 49 50 50 49 47 48 48 51 51 51 46 48 52 58 63 65 67 69 67 68 67 64 66 66 57 56
42 42 43 45 48 49 50 52 50 47 47 48 51 46 46 52 48 47 48 51 52 55 60 63 63 65 69 69 66 62 62 59
39 41 43 45 48 48 47 46 45 46 47 44 45 45 47 47 49 48 47 48 49 48 49 53 57 56 59 61 58 55 58 59

GFSFLT2_500_spd_138.txt.gz
Wind_Speed
32 32 30 29 29 28 26 25 24 24 24 24 24 24 23 22 22 22 25 26 26 25 25 24 23 21 21 21 21 20 20 23
32 29 30 30 30 30 28 28 27 26 26 26 26 27 27 26 26 25 27 28 28 27 27 27 28 27 25 23 23 22 21 22
29 30 29 30 30 29 29 28 29 29 29 28 28 28 28 29 29 30 30 31 32 32 31 29 29 31 32 30 27 26 26 26
25 27 28 26 27 27 28 29 29 30 30 30 30 29 30 30 30 32 33 34 36 35 34 33 32 32 35 33 33 28 29 34
28 29 30 31 32 34 32 34 32 33 32 32 32 32 31 32 32 31 36 36 36 34 36 36 34 35 37 36 35 32 29 28
33 34 35 35 36 36 38 37 36 37 37 39 39 40 38 37 36 35 37 41 38 33 35 36 36 37 36 36 35 32 25 15
40 41 43 44 45 45 46 45 45 45 44 43 43 45 46 45 44 42 40 42 42 41 42 40 38 43 45 43 37 33 30 27
51 51 50 51 52 54 55 57 57 54 52 55 54 53 51 49 50 50 49 49 47 47 47 46 45 53 40 50 42 33 33 28
57 60 60 59 59 56 52 51 55 56 55 57 60 59 57 53 49 51 52 51 51 51 51 54 47 58 45 37 42 31 31 23
52 48 45 45 45 49 49 46 45 46 48 50 53 54 53 56 53 52 53 54 55 55 57 57 57 52 62 50 36 39 40 32
45 45 44 43 42 42 42 44 44 44 45 47 48 49 51 50 52 55 56 58 60 60 60 65 63 65 64 54 52 53 47 39
47 46 46 45 44 43 43 45 45 46 47 48 49 51 52 52 53 55 55 56 59 62 67 68 68 68 69 65 58 55 51 49
46 47 47 47 46 46 47 48 49 51 49 49 49 50 52 53 55 56 57 59 62 65 68 69 67 67 68 68 64 61 58 55
51 51 50 50 50 49 49 49 49 48 48 50 50 52 55 56 57 58 61 64 66 68 72 76 69 70 70 72 71 67 62 59
52 52 51 49 48 47 47 48 48 48 50 50 49 50 51 52 55 57 60 62 63 66 71 77 76 70 72 71 72 72 68 65
50 49 47 46 46 46 45 46 46 47 48 48 49 49 50 51 52 52 55 57 59 61 65 68 73 72 66 68 72 73 72 70
48 46 44 43 43 43 44 45 47 47 48 50 50 50 50 49 49 51 53 54 56 57 57 60 65 70 72 67 66 65 67 70
43 42 42 41 41 42 44 45 47 48 49 50 51 51 49 48 48 49 52 54 56 56 55 55 57 60 65 68 69 70 68 63
42 41 41 40 41 41 43 46 48 49 50 50 50 48 47 48 47 48 48 49 51 52 52 53 56 58 59 62 67 69 67 65
40 40 40 40 40 41 42 46 47 48 50 49 47 45 45 48 47 45 48 51 53 54 56 53 57 55 55 56 58 61 63 62

GFSFLT2_500_spd_141.txt.gz
Wind_Speed
29 30 31 31 29 28 28 28 27 26 25 25 24 25 24 23 22 23 24 24 24 24 24 23 22 21 19 19 20 20 20 18
29 32 33 32 31 30 28 30 31 29 28 27 25 26 26 26 26 27 27 27 28 28 26 27 26 24 24 24 22 23 23 21
31 30 30 31 31 27 29 30 30 29 26 24 24 27 27 28 29 30 30 31 31 32 32 31 30 30 28 29 27 26 24 24
28 28 28 28 27 28 31 34 33 34 28 23 25 27 26 27 30 32 32 34 34 34 35 36 36 33 33 33 31 32 30 28
28 28 29 30 32 33 34 37 35 29 35 25 26 29 33 33 33 34 34 35 35 34 33 38 40 37 36 38 36 36 34 32
33 34 35 35 37 41 42 43 45 41 41 40 36 35 37 36 38 39 40 40 41 39 36 36 34 37 39 42 43 41 37 35
40 41 42 44 45 47 51 54 53 53 50 49 50 49 47 44 44 47 48 48 46 47 45 45 39 41 42 44 49 45 40 35
47 49 50 52 53 54 57 58 61 60 59 57 53 51 53 51 50 51 54 54 54 52 51 50 49 50 53 52 38 42 42 39
51 51 52 53 54 54 52 50 53 54 52 47 49 47 48 48 52 56 57 56 56 56 54 52 54 55 58 59 52 44 31 30
47 49 50 50 50 46 46 47 46 46 45 45 45 44 43 43 46 47 48 50 52 52 54 55 56 59 58 60 55 46 44 41
45 45 45 45 45 45 44 43 43 44 44 45 46 46 46 47 47 48 48 48 51 55 62 61 61 60 61 62 62 57 49 48
43 44 45 45 45 44 43 43 44 45 44 47 48 49 50 51 52 53 54 54 54 54 56 60 62 64 62 60 61 60 55 51
50 51 51 50 50 49 48 47 46 48 48 48 49 50 52 53 55 55 56 57 58 59 61 62 64 65 65 61 59 60 61 56
57 57 57 56 54 52 50 48 47 47 47 49 48 50 52 52 54 55 57 59 61 62 63 66 69 72 71 67 63 62 63 63
58 58 57 55 51 49 47 47 46 46 45 46 47 48 47 50 52 53 55 57 59 61 63 66 67 71 74 73 70 70 63 60
58 57 55 55 51 47 45 44 43 45 45 45 46 47 48 49 50 51 54 56 57 59 61 63 64 65 71 73 71 68 68 67
57 55 52 48 46 44 43 43 43 44 44 46 47 48 49 51 53 55 56 57 57 57 59 60 62 64 68 71 68 66 62 65
52 50 48 45 43 42 43 42 42 43 44 46 48 50 52 53 53 53 53 55 55 54 56 58 60 61 63 63 63 62 61 62
40 43 45 44 43 43 42 41 43 44 46 47 49 51 51 52 52 51 50 48 48 50 52 53 55 56 55 58 58 56 58 59
38 43 43 44 45 46 47 46 46 46 47 48 49 50 51 49 48 48 46 46 46 48 48 50 53 54 59 56 55 57 57 58

GFSFLT2_500_spd_144.txt.gz
Wind_Speed
28 30 32 33 34 33 31 30 31 30 29 29 29 29 29 28 27 27 27 27 27 27 28 27 25 24 23 24 22 22 19 18
29 32 34 34 34 32 32 30 30 30 30 29 29 31 32 31 29 29 29 30 30 30 31 32 30 29 27 28 29 27 26 22
31 33 34 34 33 32 30 28 27 25 26 27 28 27 27 28 28 29 30 31 31 33 34 35 34 33 33 35 35 33 32 29
28 29 31 32 31 31 30 32 30 29 29 32 25 31 29 27 27 27 28 29 30 32 35 37 36 36 38 40 42 41 38 35
26 27 28 30 32 33 34 35 36 36 35 36 37 39 34 37 32 34 36 34 32 34 36 37 37 35 38 40 47 45 43 40
33 33 34 35 37 40 41 43 44 46 46 45 45 45 45 45 45 44 44 43 42 41 42 45 43 45 46 44 42 45 49 45
41 43 44 45 46 47 49 51 53 53 54 54 53 54 53 53 52 51 50 51 51 48 48 49 49 50 49 54 55 41 35 32
44 46 47 49 50 50 50 52 53 54 55 54 53 45 47 49 47 45 47 51 55 53 51 52 54 55 55 51 51 48 46 45
42 42 41 42 44 45 46 48 50 51 52 53 53 50 44 42 46 45 45 46 50 53 52 53 54 55 55 57 52 46 43 40
41 42 44 45 45 43 43 43 46 47 48 49 50 51 50 45 42 42 43 44 46 48 50 52 52 52 55 57 56 51 47 42
40 41 42 42 42 43 43 43 45 47 48 49 50 51 51 50 49 48 47 47 47 49 51 53 53 54 55 58 61 60 55 50
44 45 44 46 47 47 48 48 48 50 52 52 53 53 53 54 53 53 52 52 53 54 55 57 58 59 60 59 60 57 59 55
50 51 52 52 52 50 49 49 50 51 53 54 54 54 56 56 56 56 56 55 55 56 56 57 59 60 62 62 62 60 56 56
58 59 59 57 52 52 53 52 52 52 52 52 53 54 54 54 55 56 56 56 56 57 58 58 60 61 62 63 64 66 61 59
60 60 56 55 56 54 53 51 51 51 51 51 51 51 52 52 53 53 53 53 54 55 56 57 58 61 63 65 66 66 65 63
56 52 56 59 56 53 47 46 46 47 49 50 50 50 50 50 50 51 51 52 53 54 55 57 59 61 64 65 67 68 68 65
54 58 58 52 53 42 42 42 44 47 48 50 51 51 50 51 51 52 53 55 56 57 59 62 63 65 67 68 69 68 69 68
57 56 51 52 45 44 43 42 42 43 44 46 47 49 50 52 53 54 55 56 57 58 59 60 62 64 66 65 63 63 65 66
54 53 48 49 47 42 41 41 41 44 46 48 49 51 52 53 54 55 57 59 58 56 54 55 56 56 56 57 59 61 63 65
51 49 50 53 49 40 37 38 41 44 47 47 48 51 53 55 57 58 55 53 54 51 52 51 49 50 53 55 55 54 56 57